Location: Newark
(45.9456°N, 15.4064°E)
Time: 11:33:44
(UTC+00:00)

Courier 1B Rocket - Pass Details

Date: 20 January 2020
Orbit: 920 x 1202 km, 28.2° (Epoch: 22 February)

Event Time Altitude Azimuth Distance (km) Brightness Sun altitude
Rises 15:57:05 0° 243° (WSW) 3,595 11.8 -2.6°
Reaches altitude 10° 16:01:34 10° 215° (SW) 2,616 8.4 -3.3°
Maximum altitude 16:03:52 12° 193° (SSW) 2,452 7.7 -3.6°
Drops below altitude 10° 16:06:10 10° 171° (S) 2,600 7.5 -4.0°
Sets 16:10:36 0° 142° (SE) 3,548 7.8 -4.7°
